Temperature
18 18 18 18 18 18 18 18 18 18 18 18 17 17 17 18 18 17 17 17 17 17 17 17 17 17 17 17 17 17 17 16 16 16 16 16 16 16 16 16 16 16 16
18 18 18 18 18 18 18 18 18 18 17 17 17 17 17 17 17 17 17 17 17 17 17 17 17 17 17 16 16 16 16 16 16 16 16 16 16 16 16 16 16 16 16
18 18 18 18 18 18 18 18 18 18 17 17 17 17 17 17 17 17 17 17 17 17 17 17 17 17 17 16 17 17 17 17 16 16 16 16 16 16 16 16 16 16 16
18 18 18 18 18 18 18 17 17 17 17 17 17 17 17 17 17 17 17 17 17 17 17 17 17 17 16 16 17 17 17 17 16 16 16 16 16 16 16 16 16 16 16
18 18 18 18 18 18 18 18 17 17 17 17 17 17 17 17 17 17 17 17 17 17 17 17 17 16 16 16 16 16 16 16 16 16 16 16 16 16 16 16 16 16 15
18 18 18 18 18 18 18 18 18 17 17 17 17 17 17 17 17 17 17 17 17 17 17 17 16 16 16 16 16 16 16 16 16 16 16 16 16 16 16 16 16 15 15
18 18 18 18 18 18 18 18 18 17 17 17 17 17 17 17 17 17 17 17 17 16 16 16 16 16 16 16 16 16 16 16 16 16 16 16 16 16 15 15 15 15 15
18 18 18 18 18 18 18 18 18 17 17 17 17 17 17 17 17 17 17 17 17 16 16 16 16 16 16 16 16 16 16 16 16 16 16 16 16 15 15 15 15 15 15
18 18 18 18 18 18 18 18 18 18 18 17 17 17 17 17 17 17 17 17 16 16 16 16 16 16 16 16 16 16 16 16 16 16 16 16 15 15 15 15 15 15 15
18 18 18 18 18 18 18 18 18 18 17 17 17 17 17 17 17 16 16 16 16 16 16 16 16 16 16 16 16 16 16 16 16 16 15 15 15 15 15 15 15 15 15
18 18 18 18 18 18 18 18 18 18 17 17 17 17 17 17 17 16 16 16 16 16 16 16 16 16 16 16 16 16 16 16 16 16 15 15 15 15 15 15 15 15 15
18 18 18 18 18 18 18 18 17 17 17 17 17 17 17 17 17 16 16 16 16 16 16 16 16 16 16 16 16 16 16 16 15 15 15 15 15 15 15 15 15 15 14
18 18 18 18 18 17 17 17 17 17 17 17 17 17 17 16 16 16 16 16 16 16 16 16 16 16 16 15 15 15 15 15 15 15 15 15 15 15 15 15 15 15 14
18 18 18 18 18 17 17 17 17 17 17 17 17 17 17 16 16 16 16 16 15 15 16 16 16 16 15 15 15 15 15 15 15 15 15 15 15 15 15 15 15 14 14
18 18 18 18 18 17 17 17 17 17 17 17 17 16 16 16 16 16 16 16 15 15 15 16 16 16 15 15 15 15 15 15 15 15 15 15 15 15 15 15 14 14 14
18 18 18 18 17 17 17 17 17 17 17 16 16 16 16 16 16 16 16 15 15 15 15 15 15 15 15 15 15 15 15 15 15 15 15 14 15 15 15 14 14 14 14
18 18 18 17 17 17 17 17 17 17 16 16 16 16 16 16 16 16 15 15 15 15 15 15 15 15 15 15 15 15 15 15 15 14 14 14 14 14 14 14 14 14 14
18 18 17 17 17 17 17 17 17 16 16 16 16 16 16 15 15 15 15 15 15 15 15 15 15 15 15 15 15 15 14 14 14 14 14 14 14 14 14 14 14 14 14
18 17 17 17 17 17 17 16 16 16 16 16 16 15 15 15 15 15 15 15 15 15 15 15 14 14 14 14 14 14 14 14 14 14 14 14 14 14 13 14 14 14 14
18 17 17 17 17 17 17 16 16 16 16 16 15 15 15 15 15 15 15 15 15 15 15 14 14 14 14 14 14 14 14 14 14 14 14 14 14 13 13 13 13 13 13
17 17 17 17 16 16 16 16 16 16 16 15 15 15 15 15 15 15 15 15 15 14 14 14 14 14 14 14 14 14 14 14 14 14 14 14 13 13 13 13 13 13 13
17 17 17 17 16 16 16 16 16 15 15 15 15 15 15 15 15 15 15 14 14 14 14 14 14 14 14 14 14 13 13 13 13 13 13 13 13 13 13 13 13 13 13
17 17 17 16 16 16 16 16 16 15 15 15 15 15 15 15 15 15 14 14 14 14 14 14 14 14 14 14 13 13 13 13 13 13 13 13 13 13 13 13 13 13 13
17 17 17 16 16 16 16 16 16 15 15 15 15 15 15 15 15 15 14 14 14 14 14 14 14 14 13 13 13 13 13 13 13 13 12 12 13 13 13 13 13 13 13
17 17 16 16 16 16 16 15 15 15 15 15 15 15 15 15 15 14 14 14 14 14 14 14 13 13 13 13 13 12 12 12 12 13 12 12 12 12 12 13 12 12 12
16 16 16 16 15 15 15 15 15 15 15 15 15 15 14 14 14 14 14 14 14 14 14 14 13 13 13 13 12 12 12 12 12 12 12 12 12 12 12 12 12 12 12
Wind_Speed
1 1 1 2 2 2 2 2 2 2 2 2 2 2 2 2 2 2 3 4 5 5 6 6 7 8 8 8 8 8 8 8 8 7 7 8 8 9 9 9 8 8 8
2 1 1 1 1 1 2 2 2 2 2 2 1 2 1 1 1 2 2 3 4 5 6 6 6 7 7 7 7 7 7 7 6 6 6 5 6 6 7 8 8 7 8
3 2 1 1 1 2 2 2 3 2 2 1 1 1 1 1 1 1 2 2 3 3 4 4 4 5 5 6 6 6 7 8 7 7 6 6 6 6 6 7 7 7 7
3 3 2 1 1 2 2 2 2 2 1 1 1 0 0 1 1 1 1 1 1 2 2 2 3 4 4 6 6 6 7 8 8 7 7 7 7 6 6 6 6 7 8
3 3 2 1 2 2 2 2 2 2 1 1 1 0 0 0 1 1 1 1 1 2 2 2 3 3 4 4 4 4 5 6 7 7 8 7 8 7 7 6 6 5 6
3 3 2 2 3 2 1 1 2 2 1 1 1 1 1 0 0 0 0 0 1 1 2 2 2 3 3 3 3 4 4 5 5 6 7 7 8 8 7 7 6 6 6
3 3 3 2 3 2 2 2 2 2 1 2 2 1 2 1 1 0 0 0 1 1 1 1 2 2 2 3 3 3 4 5 6 6 7 8 8 8 8 8 8 7 7
3 3 3 3 2 2 2 2 3 2 1 1 2 1 1 2 2 1 0 1 1 1 1 2 1 2 2 2 2 2 3 3 4 5 6 8 9 9 9 8 8 8 8
2 3 3 3 3 3 3 3 3 3 2 1 1 2 2 2 1 1 1 0 1 1 1 1 1 1 1 1 2 2 3 3 3 4 5 6 8 8 9 8 8 8 9
2 3 3 4 3 3 3 3 3 3 3 2 1 1 1 2 1 1 2 1 1 1 1 1 1 1 2 2 2 3 3 3 3 4 4 3 5 6 7 7 7 8 8
1 2 3 3 3 3 3 2 2 3 3 3 2 2 1 1 1 2 1 2 1 1 1 1 2 2 2 3 3 3 3 4 3 3 4 4 4 5 7 7 8 8 8
0 0 2 2 2 2 3 3 3 3 3 3 3 2 2 2 2 2 2 1 1 2 1 1 2 3 3 3 4 4 4 4 4 4 4 4 4 4 5 6 7 7 8
1 2 2 2 2 2 3 3 3 3 3 3 3 2 2 2 2 2 2 1 1 1 1 1 2 3 3 3 4 4 4 4 5 5 4 4 5 4 4 5 5 6 7
3 2 2 2 2 2 3 3 3 3 2 2 3 2 2 2 2 3 3 2 1 1 1 2 2 3 4 3 4 4 3 4 4 4 4 4 4 4 4 4 4 4 5
3 2 2 2 2 2 2 2 2 2 2 2 2 2 2 1 2 2 2 3 3 2 2 2 2 2 3 3 4 4 4 4 4 4 5 5 5 4 4 4 3 3 3
3 3 3 3 2 3 2 2 2 2 2 2 2 2 2 1 1 1 2 2 2 3 2 2 2 2 2 2 3 3 4 4 4 4 4 4 4 4 4 4 4 4 4
3 3 3 3 3 3 3 3 3 3 2 2 2 2 2 2 2 2 2 2 2 2 3 3 2 2 1 2 2 2 3 3 3 4 4 5 5 5 5 5 5 5 5
3 3 3 3 3 3 3 4 3 3 3 2 2 2 2 2 2 2 2 2 3 3 3 3 2 1 2 2 2 2 2 2 2 3 5 5 6 6 6 6 6 6 6
4 4 4 4 4 3 3 3 3 3 3 3 3 3 3 3 3 2 3 3 3 3 3 3 2 1 1 1 1 1 2 2 2 3 3 4 6 7 7 8 8 8 8
4 4 4 4 4 4 3 3 3 3 3 3 3 3 4 4 4 4 3 3 3 3 2 3 2 2 1 1 1 1 2 2 2 2 2 4 5 6 7 8 9 9 9
5 4 4 4 4 3 3 3 3 3 3 3 2 3 4 5 6 5 3 3 3 3 2 2 2 2 2 1 2 2 2 3 3 2 2 3 3 3 5 7 8 9 10
4 4 4 4 4 4 4 5 5 3 3 3 3 3 3 4 5 5 5 6 5 4 4 3 3 4 4 3 3 2 2 2 3 2 2 3 2 3 4 5 7 9 10
4 4 4 4 4 4 5 6 6 4 4 4 3 3 3 3 3 3 3 4 4 6 7 5 5 5 5 5 4 4 4 4 4 2 2 3 2 4 4 6 8 8 9
4 4 4 4 4 4 5 6 5 4 4 4 4 4 4 4 3 3 2 3 3 4 5 5 6 6 6 5 5 5 4 3 3 2 3 3 3 4 4 5 6 7 8
3 3 3 3 4 4 5 5 5 3 4 4 4 4 4 4 5 3 3 3 4 4 4 6 6 6 6 6 5 3 2 2 3 3 3 3 3 3 3 4 4 5 6
3 3 3 3 3 4 4 6 6 4 4 4 3 3 4 4 4 3 3 4 5 5 4 3 3 4 4 5 6 6 5 4 3 3 3 3 2 2 2 2 3 3 4
Wind_Direction
123 108 91 87 89 103 99 92 92 105 107 101 122 140 151 152 165 185 226 229 234 239 240 232 224 220 219 214 213 211 208 207 208 207 214 220 223 223 220 217 218 214 214
162 148 131 116 127 132 133 119 116 116 117 112 115 133 154 170 187 204 239 248 249 249 247 234 230 224 218 212 207 204 206 208 207 204 200 202 212 217 216 214 216 216 211
177 168 151 147 157 145 126 112 101 105 123 121 107 123 133 169 180 218 243 251 255 250 246 229 227 222 219 217 214 211 207 207 208 201 199 205 209 214 214 214 212 209 209
173 160 158 165 151 128 128 130 124 116 110 110 85 30 94 198 196 195 213 238 247 255 255 249 240 238 235 234 228 221 212 209 206 206 209 211 210 209 210 209 212 217 216
165 161 168 167 144 129 137 160 131 138 141 140 140 40 352 272 240 202 184 227 240 250 263 274 268 264 254 245 236 223 213 205 208 214 218 219 215 211 212 209 209 213 216
162 156 151 134 129 122 119 125 127 116 130 139 111 55 36 5 71 143 218 238 251 250 251 272 277 277 275 268 252 235 226 219 218 223 228 227 224 217 214 210 212 212 216
160 145 139 131 133 136 148 149 136 116 105 119 99 36 16 24 45 268 249 276 296 292 287 266 262 260 267 278 270 259 250 240 231 234 237 231 224 221 217 216 218 217 220
164 153 145 146 144 136 135 143 137 137 142 131 132 113 2 346 8 8 311 237 282 307 311 294 290 279 273 278 295 287 276 263 254 255 254 238 225 222 222 222 222 221 219
158 154 157 156 155 161 170 171 164 162 172 166 131 145 157 232 308 352 346 320 320 324 305 303 312 296 277 275 282 279 275 270 272 275 273 251 229 225 223 221 221 220 215
162 167 164 164 165 167 173 185 171 169 159 181 188 180 176 167 162 322 341 1 356 305 294 285 286 293 276 263 268 273 280 274 279 284 281 268 231 221 215 216 219 219 217
164 169 169 171 172 175 178 175 165 161 166 178 182 167 152 135 152 172 271 321 345 303 279 266 265 267 267 264 265 273 272 272 272 272 269 269 253 237 225 224 225 222 220
279 198 169 171 177 179 180 182 174 168 174 173 173 166 162 166 184 179 210 251 281 297 299 274 266 257 257 264 269 279 276 272 268 264 263 264 265 270 242 235 232 226 223
229 229 198 183 186 194 190 179 170 178 181 175 179 178 177 184 167 165 173 202 254 301 306 281 257 258 260 259 268 273 273 269 266 262 262 264 261 255 245 244 241 233 229
221 214 197 198 197 192 194 183 181 189 178 182 176 168 172 194 180 181 178 169 205 299 287 271 265 252 259 257 266 267 277 272 268 265 260 258 263 262 248 239 239 236 231
211 200 198 205 207 202 192 170 173 186 170 180 184 173 180 199 184 188 186 182 182 224 268 267 266 270 253 246 255 247 253 255 252 258 257 252 253 252 247 240 236 237 233
205 194 203 207 208 205 185 160 164 174 164 187 184 169 184 197 183 175 191 198 200 203 236 254 248 273 261 254 251 242 248 249 247 247 249 250 250 246 241 237 235 237 228
198 195 200 198 201 199 183 169 179 176 180 200 199 190 207 198 194 200 196 194 202 201 231 266 262 283 257 271 276 254 255 255 256 245 247 249 247 247 251 248 242 238 230
199 197 192 192 197 196 184 174 179 180 189 204 209 200 221 211 209 218 208 216 217 211 213 251 270 279 266 273 270 267 274 272 261 252 248 249 249 252 254 250 240 237 235
202 200 190 196 200 195 185 182 182 189 199 211 212 208 221 208 220 221 219 229 230 226 216 227 254 257 267 281 298 304 305 297 283 264 250 255 257 258 255 248 240 238 237
197 197 193 193 195 196 193 190 187 201 209 221 224 222 224 217 221 223 222 231 229 221 218 224 245 255 260 271 252 275 295 288 282 276 273 271 263 260 255 252 245 239 235
203 197 193 192 195 197 205 197 196 204 209 225 235 238 237 229 224 223 222 220 212 212 216 227 241 252 259 249 247 247 268 286 283 247 268 275 273 268 262 253 249 243 236
201 197 203 202 204 213 202 196 191 200 203 212 231 249 249 240 240 236 227 216 205 207 214 218 231 242 248 242 240 243 255 270 273 237 240 270 257 263 263 254 250 242 237
201 203 208 208 215 220 207 204 202 197 205 220 223 236 258 258 252 249 241 233 236 227 212 209 225 236 238 230 220 233 236 242 254 248 221 261 253 260 267 257 252 245 237
199 208 211 214 222 229 213 209 206 202 216 228 228 230 239 258 259 246 253 265 266 254 235 226 230 236 237 231 219 222 231 247 273 249 211 245 256 263 277 269 258 248 242
199 213 216 215 223 240 223 211 199 202 224 237 239 236 237 252 258 238 233 259 278 281 258 239 239 243 238 226 205 193 208 231 271 260 212 230 251 265 267 264 263 249 242
202 210 222 223 227 240 232 211 192 200 224 242 250 247 240 250 264 239 222 237 258 269 276 276 264 262 250 235 211 208 212 222 246 254 218 214 235 241 269 260 254 261 252
Height
1539 1540 1541 1542 1543 1545 1546 1548 1549 1550 1551 1552 1552 1553 1553 1554 1555 1556 1556 1557 1557 1556 1556 1556 1557 1557 1558 1558 1559 1560 1561 1561 1562 1563 1564 1564 1565 1565 1566 1567 1568 1569 1570
1540 1541 1542 1543 1545 1546 1547 1548 1549 1550 1551 1552 1552 1553 1554 1554 1555 1555 1556 1556 1556 1556 1556 1556 1556 1556 1557 1557 1558 1558 1559 1560 1560 1561 1562 1562 1563 1563 1564 1565 1566 1567 1568
1541 1542 1542 1544 1545 1547 1548 1549 1550 1550 1551 1552 1553 1553 1554 1554 1555 1555 1555 1555 1555 1555 1555 1555 1555 1555 1555 1555 1556 1557 1557 1557 1558 1559 1560 1560 1561 1561 1562 1563 1564 1565 1566
1541 1542 1543 1544 1545 1547 1548 1549 1550 1550 1551 1552 1552 1553 1553 1554 1554 1554 1555 1555 1555 1554 1554 1554 1554 1554 1554 1554 1554 1554 1555 1555 1556 1556 1557 1558 1558 1559 1560 1561 1562 1562 1563
1541 1542 1543 1544 1546 1547 1548 1549 1549 1550 1551 1552 1552 1553 1553 1553 1554 1554 1554 1554 1554 1554 1553 1553 1553 1552 1552 1552 1552 1552 1553 1553 1554 1554 1555 1556 1556 1557 1558 1558 1559 1560 1560
1542 1543 1544 1544 1546 1547 1548 1549 1549 1550 1551 1551 1552 1552 1552 1553 1553 1553 1553 1553 1553 1553 1553 1552 1552 1551 1551 1551 1551 1551 1551 1551 1552 1552 1553 1553 1554 1554 1555 1556 1557 1557 1558
1543 1543 1544 1545 1546 1547 1548 1548 1549 1550 1550 1551 1551 1552 1552 1552 1552 1552 1552 1552 1552 1552 1552 1551 1551 1551 1550 1550 1550 1550 1550 1550 1550 1550 1550 1550 1551 1551 1553 1553 1554 1555 1555
1543 1544 1544 1545 1546 1547 1547 1548 1549 1549 1549 1550 1551 1551 1551 1552 1551 1551 1551 1551 1551 1551 1551 1550 1550 1550 1549 1549 1549 1549 1548 1548 1548 1548 1547 1547 1547 1549 1550 1551 1552 1552 1553
1543 1544 1544 1545 1545 1546 1547 1547 1548 1548 1549 1549 1550 1550 1550 1550 1550 1550 1549 1550 1550 1550 1549 1549 1549 1548 1548 1548 1548 1547 1547 1547 1546 1546 1545 1544 1544 1546 1547 1548 1549 1550 1550
1543 1543 1544 1544 1544 1545 1546 1546 1546 1547 1548 1548 1548 1548 1549 1549 1549 1549 1549 1549 1548 1548 1548 1548 1548 1548 1547 1547 1546 1546 1546 1545 1545 1544 1543 1542 1543 1543 1545 1546 1546 1547 1548
1542 1543 1543 1543 1543 1544 1544 1545 1545 1546 1546 1546 1547 1547 1547 1547 1548 1548 1547 1548 1547 1547 1547 1547 1546 1546 1546 1545 1545 1545 1544 1543 1543 1542 1542 1542 1542 1542 1542 1543 1544 1544 1545
1541 1542 1542 1542 1542 1542 1543 1543 1544 1544 1544 1544 1545 1545 1545 1546 1546 1546 1546 1545 1545 1546 1545 1545 1545 1544 1544 1544 1543 1543 1542 1542 1541 1541 1540 1540 1540 1540 1540 1541 1541 1542 1542
1540 1540 1540 1541 1541 1541 1542 1542 1542 1542 1543 1543 1543 1543 1544 1544 1544 1544 1544 1544 1544 1544 1544 1543 1543 1543 1542 1542 1541 1541 1541 1540 1540 1539 1539 1538 1538 1538 1539 1539 1539 1539 1540
1538 1539 1539 1539 1539 1540 1540 1540 1540 1541 1541 1541 1541 1541 1542 1542 1542 1543 1543 1542 1542 1542 1541 1541 1541 1541 1540 1540 1540 1539 1539 1538 1538 1537 1537 1537 1536 1536 1536 1537 1537 1537 1537
1536 1537 1537 1537 1537 1537 1538 1538 1538 1539 1539 1539 1540 1540 1540 1540 1541 1541 1541 1541 1541 1540 1539 1539 1539 1539 1538 1538 1537 1537 1536 1536 1536 1535 1535 1535 1535 1534 1534 1534 1534 1535 1535
1534 1534 1535 1535 1535 1535 1535 1536 1536 1536 1537 1537 1538 1538 1538 1539 1539 1539 1539 1539 1539 1539 1538 1537 1537 1537 1536 1536 1535 1535 1534 1534 1534 1533 1533 1533 1532 1532 1531 1532 1532 1532 1532
1532 1532 1532 1532 1532 1533 1533 1533 1534 1534 1535 1535 1535 1536 1536 1536 1537 1537 1537 1537 1537 1537 1536 1535 1535 1535 1534 1534 1533 1533 1532 1531 1531 1531 1530 1530 1529 1529 1528 1528 1528 1529 1529
1529 1530 1530 1530 1530 1530 1531 1531 1532 1532 1533 1533 1533 1534 1534 1534 1534 1535 1535 1535 1535 1534 1534 1533 1532 1532 1532 1531 1531 1530 1530 1529 1528 1528 1527 1527 1527 1526 1525 1525 1525 1525 1526
1526 1527 1527 1527 1527 1528 1528 1529 1530 1530 1530 1531 1531 1531 1532 1532 1532 1532 1532 1532 1532 1531 1531 1531 1530 1529 1529 1529 1528 1528 1527 1526 1526 1525 1525 1524 1523 1523 1522 1522 1522 1522 1522
1523 1524 1525 1525 1525 1525 1526 1527 1527 1527 1528 1528 1529 1529 1529 1529 1529 1529 1529 1529 1528 1528 1528 1528 1527 1526 1526 1525 1525 1524 1524 1523 1523 1522 1522 1521 1520 1520 1519 1519 1518 1518 1518
1520 1521 1522 1522 1522 1523 1523 1524 1524 1525 1525 1525 1526 1526 1527 1527 1527 1527 1527 1526 1526 1526 1525 1525 1524 1523 1523 1522 1522 1521 1520 1519 1519 1519 1518 1518 1517 1516 1516 1515 1515 1514 1514
1517 1518 1519 1519 1519 1520 1521 1521 1522 1522 1522 1522 1523 1523 1524 1524 1524 1524 1524 1524 1523 1523 1522 1522 1521 1520 1520 1519 1519 1518 1517 1516 1515 1515 1515 1514 1514 1513 1512 1512 1511 1511 1511
1514 1515 1516 1516 1516 1517 1518 1519 1519 1519 1519 1520 1520 1520 1520 1521 1521 1521 1521 1520 1520 1520 1519 1519 1518 1517 1517 1516 1515 1514 1513 1513 1512 1511 1511 1510 1510 1509 1509 1508 1508 1507 1507
1511 1511 1512 1513 1513 1514 1515 1516 1516 1516 1516 1516 1517 1517 1517 1517 1517 1517 1517 1517 1517 1516 1516 1515 1515 1514 1514 1513 1512 1511 1510 1509 1508 1508 1507 1506 1505 1505 1505 1504 1504 1503 1503
1508 1508 1509 1509 1510 1510 1512 1512 1513 1513 1513 1513 1513 1514 1514 1514 1514 1514 1514 1513 1513 1513 1512 1512 1511 1510 1510 1509 1508 1507 1506 1505 1504 1503 1503 1502 1501 1500 1500 1500 1500 1499 1499
1505 1506 1507 1507 1508 1508 1509 1509 1509 1509 1509 1509 1510 1510 1510 1511 1511 1510 1510 1510 1509 1509 1509 1508 1507 1507 1506 1505 1504 1504 1503 1502 1500 1499 1499 1498 1497 1497 1495 1495 1495 1495 1494